TimeCDT,TemperatureF,Dew PointF,Humidity,Sea Level PressureIn,VisibilityMPH,Wind Direction,Wind SpeedMPH,Gust SpeedMPH,PrecipitationIn,Events,Conditions,WindDirDegrees,DateUTC
12:54 AM,62.1,57.0,84,30.15,10.0,Calm,Calm,-,N/A,,Clear,0,2013-08-23 05:54:00
1:54 AM,59.0,55.0,87,30.16,10.0,East,6.9,-,N/A,,Partly Cloudy,90,2013-08-23 06:54:00
2:54 AM,57.9,55.0,90,30.17,10.0,ESE,3.5,-,N/A,,Clear,110,2013-08-23 07:54:00
3:54 AM,57.0,54.0,89,30.17,10.0,East,4.6,-,N/A,,Clear,100,2013-08-23 08:54:00
4:54 AM,57.0,53.1,87,30.17,10.0,ESE,4.6,-,N/A,,Partly Cloudy,110,2013-08-23 09:54:00
5:54 AM,55.9,52.0,87,30.19,10.0,ESE,6.9,-,N/A,,Mostly Cloudy,110,2013-08-23 10:54:00
6:54 AM,57.0,52.0,83,30.21,10.0,East,4.6,-,N/A,,Mostly Cloudy,100,2013-08-23 11:54:00
7:54 AM,59.0,52.0,78,30.22,10.0,East,4.6,-,N/A,,Partly Cloudy,100,2013-08-23 12:54:00
8:54 AM,66.0,54.0,65,30.21,10.0,ESE,5.8,-,N/A,,Clear,110,2013-08-23 13:54:00
9:54 AM,70.0,52.0,53,30.22,10.0,SE,9.2,-,N/A,,Clear,130,2013-08-23 14:54:00
10:54 AM,73.0,51.1,46,30.21,10.0,South,10.4,-,N/A,,Clear,170,2013-08-23 15:54:00
11:54 AM,73.9,52.0,46,30.20,10.0,South,8.1,-,N/A,,Mostly Cloudy,190,2013-08-23 16:54:00
12:54 PM,77.0,55.0,47,30.19,10.0,SE,9.2,-,N/A,,Clear,130,2013-08-23 17:54:00
1:54 PM,78.1,57.0,48,30.17,10.0,South,4.6,-,N/A,,Partly Cloudy,170,2013-08-23 18:54:00
2:54 PM,78.1,57.0,48,30.16,10.0,Variable,5.8,-,N/A,,Partly Cloudy,0,2013-08-23 19:54:00
3:54 PM,79.0,57.0,47,30.14,10.0,South,10.4,-,N/A,,Scattered Clouds,170,2013-08-23 20:54:00
4:54 PM,80.1,57.0,45,30.13,10.0,SE,10.4,-,N/A,,Scattered Clouds,140,2013-08-23 21:54:00
5:54 PM,80.1,55.9,43,30.13,10.0,South,11.5,-,N/A,,Clear,170,2013-08-23 22:54:00
6:54 PM,75.9,57.9,54,30.13,10.0,SE,9.2,-,N/A,,Clear,140,2013-08-23 23:54:00
7:54 PM,73.0,57.9,59,30.13,10.0,SE,8.1,-,N/A,,Partly Cloudy,140,2013-08-24 00:54:00
8:54 PM,70.0,57.9,65,30.14,10.0,SE,4.6,-,N/A,,Clear,130,2013-08-24 01:54:00
9:54 PM,68.0,57.9,70,30.15,10.0,SSE,5.8,-,N/A,,Clear,160,2013-08-24 02:54:00
10:54 PM,66.9,59.0,76,30.15,10.0,SE,4.6,-,N/A,,Clear,140,2013-08-24 03:54:00
11:54 PM,64.0,57.9,80,30.16,10.0,ESE,3.5,-,N/A,,Clear,120,2013-08-24 04:54:00